GFSFLT2_500_spd_081.txt.gz
Wind_Speed
42 44 43 42 42 43 43 43 44 44 45 44 41 37 36 36 38 32 36 37 32 24 28 27 29 27 29
36 38 39 41 44 47 49 51 51 51 48 41 36 34 35 33 34 35 31 35 22 27 29 27 27 29 29
41 43 44 46 48 49 50 50 49 48 43 41 38 36 34 33 34 35 32 30 27 27 32 30 27 29 29
45 46 48 50 49 48 46 44 43 43 42 41 39 36 36 35 37 36 29 28 22 23 24 30 29 30 28
48 49 49 49 48 44 43 46 46 43 42 37 36 35 35 35 38 34 25 25 26 28 27 28 30 29 29
45 44 45 43 43 45 44 42 41 40 38 35 33 32 32 32 33 32 24 24 28 31 30 31 29 29 28
39 40 44 40 40 38 40 41 35 36 33 31 30 31 30 32 28 26 27 28 30 29 28 30 29 27 28
35 36 40 37 35 37 35 32 31 32 30 30 31 31 33 28 32 25 27 24 26 27 27 26 25 26 28
36 35 35 37 38 35 34 31 30 30 31 30 29 28 30 32 27 26 22 25 24 23 24 26 26 27 28
36 36 35 37 35 34 32 32 33 32 31 30 29 30 29 26 20 21 22 22 23 25 25 27 26 26 27
36 35 34 35 34 33 33 32 31 29 26 24 19 14 13 16 19 20 21 23 23 22 24 26 26 29 30
35 34 33 34 33 31 29 28 25 20 18 18 17 16 18 19 20 21 22 23 24 22 22 24 24 21 20
36 35 33 32 32 29 28 26 24 21 18 17 17 18 19 21 22 22 22 22 22 21 22 21 20 21 22
36 35 33 31 30 26 26 25 24 22 20 19 19 20 22 22 21 21 21 21 22 22 22 22 23 23 25
36 34 33 31 27 23 24 24 23 24 25 24 23 22 20 21 21 22 22 20 21 24 25 25 26 28 31
36 35 33 31 26 23 23 23 24 25 25 26 26 24 22 22 23 24 25 25 25 27 28 30 33 34 36
36 35 35 31 29 26 26 25 24 24 24 25 24 24 23 23 25 26 28 29 30 31 33 35 35 35 37

GFSFLT2_500_spd_084.txt.gz
Wind_Speed
31 31 30 32 33 35 38 40 43 45 46 47 47 48 46 42 40 37 34 33 33 32 31 35 31 28 28
26 26 29 32 36 39 42 45 48 49 48 47 44 41 38 38 36 35 34 34 31 33 32 31 28 26 32
29 31 33 36 39 42 46 50 50 48 44 43 41 41 38 37 36 34 34 33 31 32 32 30 27 28 25
33 33 36 40 41 43 46 47 45 43 42 42 43 42 39 37 35 31 32 33 29 34 32 27 26 30 32
34 37 39 38 39 42 42 39 40 40 40 43 40 37 36 34 31 29 30 31 31 30 25 30 31 32 24
37 38 37 36 37 39 38 36 32 35 37 37 34 33 32 30 27 27 28 27 29 23 21 19 18 22 26
39 37 37 36 35 36 37 33 33 34 31 30 28 29 28 26 26 27 28 30 26 23 22 27 28 30 31
41 36 36 36 34 34 34 33 34 32 31 29 28 27 26 28 26 29 28 25 25 30 31 28 31 37 33
42 37 35 34 35 34 34 34 33 32 30 29 29 28 26 26 25 24 24 27 23 18 18 21 23 28 30
41 39 35 35 35 35 36 31 30 32 31 29 29 27 26 28 26 23 20 19 19 18 21 21 23 25 27
40 39 38 35 35 33 33 31 31 31 29 28 26 23 23 23 23 20 16 17 18 18 20 20 20 22 24
41 41 38 35 33 32 31 30 32 29 28 24 22 22 24 22 21 17 17 20 21 20 20 20 20 21 22
43 42 39 36 33 32 32 33 30 27 26 24 23 20 17 17 18 18 20 22 22 21 20 20 18 17 19
45 41 39 37 34 32 32 32 29 25 25 24 24 24 21 21 21 21 22 22 21 19 19 19 18 21 21
44 41 40 38 35 32 31 31 27 23 23 23 23 23 22 20 20 20 18 19 18 19 20 20 21 22 24
42 41 39 38 35 33 31 30 27 24 24 24 24 24 24 24 21 20 19 20 21 21 21 23 24 26 28
42 39 38 37 36 34 32 31 28 26 25 24 23 22 21 21 22 22 22 22 24 25 26 29 31 32 32

GFSFLT2_500_spd_087.txt.gz
Wind_Speed
33 35 37 35 35 34 33 32 34 36 39 42 45 45 46 43 43 38 34 33 33 32 33 32 32 29 28
37 37 36 34 33 32 32 33 35 38 41 43 47 45 45 42 37 37 35 32 32 33 30 27 25 28 27
38 36 32 32 32 33 34 36 38 38 41 46 46 40 40 39 39 38 33 31 31 30 30 28 24 23 28
39 34 32 33 34 34 37 37 36 40 41 39 38 38 38 38 35 33 31 29 28 28 28 30 27 21 29
39 38 37 36 35 36 38 36 38 40 38 34 36 35 36 32 30 28 27 25 23 24 25 27 25 26 37
41 41 38 39 38 37 39 38 38 38 38 37 37 34 31 28 25 23 23 21 22 23 24 25 25 29 31
45 44 40 41 39 40 40 38 37 36 35 36 33 30 28 26 24 22 23 24 24 23 24 23 24 22 35
49 46 43 42 42 40 40 39 36 36 36 36 32 27 25 24 23 23 25 24 24 23 20 23 23 21 21
52 49 45 44 43 41 41 39 36 36 37 35 30 27 25 25 25 24 23 23 22 20 20 22 24 26 28
53 52 49 45 43 42 39 38 37 37 36 33 30 26 24 27 25 24 25 26 26 21 21 20 20 21 20
53 51 48 45 42 40 37 38 37 37 34 32 28 26 23 24 22 23 26 25 22 23 21 20 20 21 20
49 48 47 44 42 38 37 38 37 36 34 30 28 25 22 19 21 24 24 20 18 21 20 21 22 22 22
47 45 44 44 41 38 39 38 38 36 33 29 28 25 23 19 18 17 19 19 21 24 24 22 23 21 22
50 46 44 43 42 40 40 38 37 35 32 29 28 27 25 23 21 19 22 21 20 21 22 22 22 21 21
50 50 46 47 44 41 40 37 37 35 31 29 28 26 25 23 22 22 22 23 21 21 21 22 21 21 21
47 49 51 48 44 41 39 37 38 34 33 31 29 28 26 26 24 23 23 22 21 21 22 22 21 21 21
48 45 50 52 44 41 39 38 37 35 33 31 31 30 29 28 25 26 25 23 22 23 24 24 24 25 25

GFSFLT2_500_spd_090.txt.gz
Wind_Speed
20 18 19 25 29 32 35 37 38 39 38 39 39 40 42 44 46 48 46 42 36 34 34 31 30 27 28
26 27 29 32 35 37 37 38 37 34 35 37 39 41 42 45 46 44 39 37 37 35 35 32 30 26 26
31 33 37 39 37 38 37 36 36 36 36 38 39 41 42 40 39 37 37 38 37 35 32 29 29 27 26
42 44 44 42 40 38 38 38 37 37 38 38 39 40 40 39 38 37 39 37 33 32 29 27 28 26 27
50 50 47 45 42 40 40 39 38 39 38 39 38 38 37 37 38 39 39 34 30 28 26 26 25 25 26
51 48 47 47 45 44 41 41 41 40 38 38 38 37 37 36 37 38 34 31 28 25 23 23 25 25 23
49 50 49 49 48 48 45 42 42 41 39 38 38 38 36 36 38 37 32 28 25 23 25 25 24 25 21
54 53 53 51 50 50 49 45 43 42 40 37 38 37 34 36 37 34 30 26 26 24 23 23 21 21 23
58 59 57 55 53 52 51 47 45 43 41 38 37 36 33 35 35 32 30 29 27 25 23 22 20 21 22
60 59 57 56 56 53 51 49 44 43 41 39 37 35 33 34 33 32 30 29 27 28 27 24 23 23 25
56 56 54 52 52 52 50 46 44 43 41 39 35 33 33 32 30 29 28 27 27 25 26 26 24 24 23
55 52 51 51 49 49 47 44 42 42 40 38 34 33 33 31 28 28 24 26 26 25 23 24 24 22 24
56 53 53 51 49 47 46 44 42 42 39 35 34 33 33 30 29 25 23 25 23 19 18 22 25 25 24
58 58 57 50 47 45 44 43 42 38 36 34 34 33 33 31 27 25 25 23 19 19 22 25 27 25 24
56 57 55 52 49 47 45 45 40 37 36 34 35 34 33 30 27 27 26 25 24 21 21 23 25 26 25
54 51 52 50 48 47 46 44 42 39 38 37 36 33 33 30 28 28 27 26 25 24 24 25 24 25 26
54 53 49 50 50 45 45 44 44 41 39 37 35 33 33 31 30 30 30 28 28 28 26 26 25 26 26

GFSFLT2_500_spd_093.txt.gz
Wind_Speed
40 42 43 46 47 43 30 27 23 25 28 31 39 42 41 41 40 39 41 42 43 43 40 36 33 31 32
34 31 30 26 23 21 23 26 30 33 39 40 41 40 39 40 40 40 39 42 41 40 40 38 36 34 31
31 29 28 30 31 34 37 39 40 39 39 39 39 39 38 40 40 41 42 41 43 42 40 40 35 31 29
39 38 38 40 41 41 42 42 41 40 39 39 38 39 39 38 41 41 39 40 43 42 40 38 35 32 30
50 46 50 50 51 50 48 46 45 43 41 41 40 39 38 38 39 40 38 39 41 38 37 34 31 28 29
59 50 53 55 55 53 52 50 46 44 42 43 42 40 40 39 37 37 37 38 38 36 36 32 30 27 26
61 52 51 52 51 49 51 48 44 43 44 44 43 42 41 40 36 35 36 35 35 35 32 30 30 27 28
58 49 48 52 54 55 50 47 45 45 45 46 46 44 42 39 37 36 35 33 34 34 32 30 30 27 28
63 60 50 50 50 52 50 50 48 47 48 47 46 46 42 40 37 36 34 33 33 33 31 31 30 27 24
65 65 65 66 66 65 56 51 54 50 50 48 45 45 42 40 38 36 33 32 32 31 30 30 30 27 27
66 65 62 61 64 62 58 53 51 49 46 45 44 44 41 40 38 34 31 30 32 29 28 26 26 25 25
66 64 62 59 57 57 56 51 46 44 43 43 43 41 43 41 38 33 30 28 31 29 27 25 25 26 25
63 62 61 59 57 54 51 49 44 44 42 41 41 41 40 40 37 33 28 29 30 29 26 26 26 25 23
60 59 60 59 56 53 50 48 46 43 40 40 42 41 39 37 34 31 27 27 30 28 24 22 22 22 21
60 57 58 56 54 54 52 50 47 44 39 40 41 41 38 35 33 30 29 28 29 28 25 20 22 23 24
62 60 58 55 54 52 53 52 48 45 41 40 41 41 38 36 34 31 29 29 29 28 27 25 24 24 25
68 65 62 59 55 53 52 53 50 46 43 40 40 39 39 37 36 34 31 31 29 27 27 28 25 25 25

GFSFLT2_500_spd_099.txt.gz
Wind_Speed
60 56 59 60 59 54 54 48 49 49 49 47 46 46 45 46 37 33 29 27 27 31 32 30 26 27 29
51 45 47 43 44 43 45 50 49 49 49 52 48 49 47 43 35 25 28 32 34 31 29 28 29 28 29
48 48 44 45 40 39 40 41 44 42 43 45 47 41 36 27 26 32 34 34 32 30 28 28 30 29 30
62 61 57 52 52 49 46 46 43 44 47 45 40 34 30 30 33 35 34 34 32 31 31 31 32 30 31
63 65 65 61 58 57 48 49 51 45 42 42 41 36 33 36 37 34 33 32 33 33 34 33 34 32 31
72 66 64 63 66 60 48 49 46 50 50 50 48 39 40 42 38 36 34 33 32 35 36 36 36 33 33
79 70 64 61 64 63 60 57 52 44 51 46 44 46 44 44 37 33 33 33 33 35 38 38 36 34 35
83 81 73 67 67 65 56 64 59 57 49 52 46 38 40 39 35 35 35 33 31 32 33 36 38 37 36
88 84 80 75 71 68 69 68 55 55 51 55 54 44 40 41 39 37 33 32 30 34 38 38 37 36 36
91 87 82 80 76 75 70 60 58 51 48 47 46 42 44 48 44 34 32 31 33 37 38 36 34 35 35
89 86 81 73 76 77 76 70 69 67 56 48 48 47 40 39 37 32 36 40 41 39 38 35 33 34 31
80 76 74 74 71 71 76 70 55 59 57 53 45 45 44 41 44 45 42 43 38 37 36 33 33 34 33
79 74 70 68 56 46 58 69 68 63 68 66 67 59 52 47 44 47 47 44 41 38 35 35 35 33 32
77 74 71 69 71 68 53 59 64 64 68 66 67 56 51 46 50 50 47 42 39 37 36 35 34 34 31
73 73 70 70 70 71 65 67 63 64 60 59 57 55 52 51 51 49 44 41 38 35 35 35 34 34 32
63 71 69 69 68 70 70 67 65 62 59 57 55 53 53 51 48 44 41 38 36 35 36 34 34 34 33
49 61 67 65 65 66 68 65 62 61 57 56 54 52 51 48 46 43 40 37 38 38 36 34 36 35 34

GFSFLT2_500_spd_102.txt.gz
Wind_Speed
46 49 48 52 53 56 52 50 51 56 56 52 53 52 49 49 47 46 46 42 41 39 32 26 25 24 23
54 55 57 57 63 61 62 60 55 59 52 46 47 45 47 50 46 48 42 42 43 35 30 28 29 26 23
39 41 48 51 48 50 46 48 47 43 42 46 50 46 45 48 48 47 41 40 36 32 34 30 30 27 24
49 51 50 50 51 49 44 43 40 40 39 39 42 39 41 42 44 46 44 35 34 35 35 33 30 29 27
55 54 56 58 56 55 56 59 59 50 41 43 48 44 44 48 51 50 42 38 37 37 33 33 31 30 31
61 61 60 60 62 62 60 63 57 63 60 53 50 50 46 46 44 43 41 40 37 35 33 31 31 31 31
70 69 68 66 67 67 67 67 65 63 64 62 58 54 55 52 52 49 45 40 40 36 34 32 31 31 31
77 76 76 78 77 75 73 72 72 71 68 65 64 56 50 54 53 51 47 45 44 38 34 32 33 32 31
88 87 87 89 86 83 83 80 78 76 74 72 65 63 56 53 45 39 39 47 46 41 37 35 31 29 30
97 97 96 95 93 82 83 83 83 79 78 74 68 61 68 62 64 59 47 43 46 44 38 34 30 32 36
102 101 98 89 85 81 82 82 81 79 76 73 67 59 54 49 50 47 40 43 43 41 37 33 32 33 35
101 92 83 79 82 84 72 72 75 75 65 69 70 71 64 53 45 46 48 52 52 47 36 30 33 33 35
72 65 66 76 87 85 71 68 66 62 63 64 65 68 68 67 51 50 54 53 49 45 32 27 33 34 34
51 48 50 58 79 77 77 65 75 66 63 70 75 72 64 65 54 56 56 55 51 37 32 34 36 34 34
46 47 47 48 53 59 70 80 72 60 57 52 45 49 57 65 60 59 57 48 38 35 36 36 34 32 32
44 44 43 44 50 57 67 71 81 73 56 53 59 63 50 51 44 41 40 38 37 38 38 36 34 31 33
44 44 41 41 51 57 64 70 71 71 64 51 47 58 66 59 53 43 38 39 41 37 37 37 34 35 37

GFSFLT2_500_spd_108.txt.gz
Wind_Speed
48 48 46 47 48 42 42 42 40 39 39 40 43 44 38 44 40 40 43 42 46 46 43 40 34 32 31
39 37 38 39 39 40 40 41 41 47 48 45 48 45 48 49 47 41 43 37 42 43 41 38 35 37 33
39 43 42 43 45 45 44 50 37 29 39 43 37 34 30 37 44 40 38 36 36 34 36 40 35 37 34
33 35 36 36 42 43 36 32 33 32 30 25 27 23 21 20 20 26 31 29 41 33 36 38 38 36 34
45 41 42 42 41 44 45 42 40 39 36 35 32 33 32 26 24 23 21 18 21 29 26 29 32 31 31
53 53 53 52 52 53 52 49 45 45 42 40 38 37 35 34 34 34 33 31 30 31 31 33 33 31 31
60 60 60 60 61 60 59 57 54 52 51 47 45 44 42 41 39 38 37 36 34 33 33 33 36 33 33
70 69 68 68 67 66 65 62 60 58 58 55 54 51 49 48 45 43 42 41 39 38 37 35 36 37 38
78 77 76 76 75 73 72 70 67 64 64 62 60 58 56 54 53 50 48 47 45 43 43 41 40 40 41
81 81 81 81 81 81 80 79 77 73 70 70 69 65 64 60 59 57 55 53 52 49 48 46 46 46 48
79 82 84 84 84 84 84 83 82 80 78 76 75 74 71 68 66 64 63 61 59 56 54 52 50 51 52
80 82 83 85 86 86 86 86 85 83 82 81 79 77 76 74 71 70 67 66 65 64 60 56 55 54 55
84 84 83 84 84 85 86 86 85 84 84 84 83 81 78 77 74 72 72 69 68 67 64 58 59 57 57
82 81 82 82 82 84 84 84 84 83 82 82 82 83 81 79 76 74 74 71 70 65 62 62 59 54 49
74 74 74 74 73 75 77 76 76 77 78 78 79 78 78 78 77 75 74 72 73 72 69 61 56 51 57
61 62 62 61 60 61 63 66 65 66 68 69 71 72 72 72 70 70 72 74 76 72 63 67 73 67 60
46 48 49 49 48 48 50 50 51 52 53 54 56 59 61 62 64 65 72 75 72 70 71 64 64 62 61

GFSFLT2_500_spd_111.txt.gz
Wind_Speed
56 55 54 55 52 53 53 53 55 55 58 55 56 54 52 51 53 54 56 57 59 51 46 39 40 39 36
45 49 50 50 50 50 50 54 52 51 51 48 49 48 46 47 49 52 54 52 52 49 49 43 42 45 41
40 35 35 38 38 42 41 41 41 42 41 44 45 45 43 42 44 46 48 47 52 46 44 45 44 39 31
35 37 38 38 37 41 43 43 44 44 44 45 48 47 47 48 46 46 50 49 50 49 44 42 39 37 33
46 46 47 47 45 42 42 38 43 48 42 42 35 34 31 37 38 31 29 37 45 47 43 39 37 34 31
55 55 54 54 54 52 45 42 45 45 49 37 40 36 36 30 32 31 30 29 29 34 35 37 35 33 27
64 62 61 60 60 58 57 53 50 49 49 46 44 44 45 45 38 36 38 34 30 31 32 33 35 35 33
73 72 70 69 67 65 64 64 63 63 62 58 56 55 52 49 48 47 46 44 44 41 39 37 36 36 36
78 79 79 78 78 75 73 70 69 69 70 68 66 63 60 56 55 52 51 50 49 48 47 44 43 42 38
79 80 81 82 82 83 82 80 77 75 76 74 72 71 68 64 62 60 58 56 55 53 53 50 48 45 42
80 81 81 82 83 84 85 86 86 85 83 83 80 78 75 72 71 68 65 63 61 59 58 55 53 49 47
81 80 82 83 83 84 84 85 86 86 87 89 86 86 83 80 77 75 71 69 67 65 62 60 59 56 53
86 85 84 85 85 85 84 84 86 87 88 90 90 90 90 87 84 81 79 75 73 71 69 66 64 63 60
77 79 81 83 85 86 85 87 85 85 86 87 89 91 90 90 88 86 85 81 79 76 75 73 71 67 65
62 67 69 73 76 81 83 84 86 87 86 86 85 86 88 89 88 87 87 86 83 81 80 77 75 73 70
47 51 55 58 62 66 71 76 79 82 84 86 86 85 84 84 86 85 85 85 85 84 83 81 79 78 76
37 38 40 43 47 51 57 61 65 69 74 78 80 84 84 82 80 81 82 85 85 85 84 81 81 79 77

GFSFLT2_500_spd_114.txt.gz
Wind_Speed
61 67 57 54 53 47 52 53 53 51 46 51 56 53 58 58 55 56 54 53 58 62 61 56 53 45 39
50 58 65 59 61 56 56 56 52 53 52 53 53 60 59 60 56 61 62 59 56 67 60 54 58 55 48
51 50 50 53 53 47 51 51 53 55 53 56 65 65 60 57 53 54 56 57 58 64 65 65 63 60 56
44 44 44 44 47 47 43 44 46 44 46 46 54 60 57 54 52 51 52 51 52 55 57 58 54 49 53
54 52 47 43 43 46 47 44 42 43 47 49 45 46 46 45 48 49 49 48 44 47 49 49 49 51 47
64 61 58 58 59 56 48 43 47 46 44 44 48 49 49 47 47 48 49 55 53 50 50 51 50 51 47
71 71 69 67 64 63 63 57 57 56 51 48 50 52 51 51 49 48 38 40 50 54 53 52 51 51 51
77 75 75 75 74 71 68 66 65 63 61 55 53 49 51 57 51 43 43 39 46 40 37 43 43 45 46
76 77 79 79 79 80 78 74 71 69 68 64 63 58 52 56 48 47 45 45 42 44 41 35 39 41 43
74 78 80 78 81 82 83 83 81 77 75 71 69 70 66 62 63 59 58 51 49 43 47 47 38 41 42
73 77 80 82 81 82 85 85 86 86 83 81 77 75 76 72 69 65 66 65 60 59 61 58 58 56 52
69 71 76 81 85 85 85 86 86 87 88 90 87 84 81 78 75 76 74 75 69 64 63 62 61 60 60
65 66 70 74 80 85 88 87 88 87 88 91 92 93 90 86 83 79 80 80 77 72 69 68 66 65 63
52 55 59 64 71 78 84 89 89 88 90 91 91 93 93 94 92 88 85 84 82 80 77 74 73 71 67
43 43 46 50 53 60 72 81 87 89 91 92 92 93 92 92 92 93 93 91 88 87 84 81 77 75 72
40 43 43 42 42 47 53 63 74 82 86 90 92 92 92 91 90 90 89 89 91 92 91 87 82 79 76
36 36 35 34 34 35 38 47 56 66 73 80 87 91 92 90 89 88 88 87 88 90 91 92 86 82 81

GFSFLT2_500_spd_117.txt.gz
Wind_Speed
50 52 47 57 49 55 58 52 49 50 52 56 58 53 56 56 61 53 53 56 56 59 57 58 54 54 54
46 46 56 58 54 55 53 57 56 49 53 53 51 52 54 51 52 53 57 59 61 54 53 56 54 56 57
56 52 50 55 55 57 58 58 53 53 55 52 58 52 60 51 51 52 62 55 59 61 59 59 61 62 60
65 60 58 55 51 49 57 56 54 56 60 56 58 55 52 54 58 54 58 54 59 58 65 65 60 61 61
68 67 64 62 58 56 50 51 51 51 53 56 56 60 62 64 61 62 64 63 65 61 54 53 59 67 64
70 70 68 67 67 63 60 55 50 52 53 56 60 61 60 59 57 57 61 62 62 57 56 55 56 56 56
61 66 70 70 68 69 68 65 62 59 60 54 57 55 54 56 57 50 49 50 51 52 51 53 49 45 44
60 61 64 66 71 71 73 74 71 68 65 61 62 61 54 53 51 51 51 50 48 48 49 49 51 50 48
61 63 65 68 69 71 73 75 77 76 75 70 67 62 61 60 54 52 54 53 52 51 45 47 47 49 52
69 71 72 71 72 74 73 75 78 80 80 80 77 75 72 68 62 56 53 56 54 53 48 43 46 46 47
65 67 70 74 77 76 77 77 77 80 81 85 84 81 79 73 72 68 61 58 60 60 50 56 46 42 40
62 65 68 68 69 72 75 78 80 79 81 84 88 87 85 81 74 75 72 66 62 62 59 53 54 48 45
65 65 61 59 61 64 69 73 78 82 82 83 87 89 90 88 83 78 79 77 70 66 64 62 56 55 53
63 53 46 44 46 51 54 64 73 77 84 86 86 88 90 92 91 86 83 81 79 73 71 69 68 61 59
54 45 39 38 39 42 46 50 60 71 77 85 88 88 89 91 94 91 89 87 84 80 79 78 74 74 65
49 41 37 36 35 38 41 44 48 55 66 76 85 88 89 90 92 92 91 91 91 88 82 83 79 81 74
43 40 35 34 34 34 34 33 34 42 52 61 72 84 88 89 91 92 90 90 91 92 90 86 84 82 82

GFSFLT2_500_spd_120.txt.gz
Wind_Speed
57 58 57 56 53 51 53 56 57 54 54 57 53 58 65 60 62 63 62 61 60 58 60 57 57 56 57
60 62 62 59 57 53 52 52 59 54 48 56 59 67 51 58 60 59 51 57 62 52 56 56 55 56 56
58 60 62 62 62 60 58 54 51 54 55 53 57 63 55 51 58 59 57 61 57 58 58 55 56 58 59
62 64 64 64 63 64 64 63 57 56 59 63 61 56 59 54 50 52 51 50 61 60 56 54 56 60 62
58 58 60 63 68 69 69 65 65 63 61 66 69 65 65 59 51 50 50 63 59 55 56 55 60 59 61
56 56 57 58 58 62 70 70 64 68 67 59 65 68 70 65 61 59 60 56 59 61 58 56 54 57 54
53 55 55 58 61 60 60 64 65 64 70 66 61 61 64 65 62 58 60 60 64 64 63 60 59 61 55
58 61 65 65 63 61 62 63 60 60 69 73 68 62 60 62 63 61 61 60 61 65 61 63 62 64 64
61 65 64 65 68 69 67 65 65 62 62 74 72 71 68 69 64 63 63 65 58 55 53 53 52 53 53
61 64 64 62 62 63 68 71 71 68 65 69 75 77 75 74 73 67 62 65 61 58 57 51 49 49 48
60 63 60 55 57 58 62 63 64 70 73 72 72 78 81 77 77 75 70 68 61 58 54 54 52 48 46
60 61 58 54 54 58 63 67 69 68 68 75 76 78 82 82 78 80 71 71 68 62 59 57 52 52 50
59 60 60 55 57 60 58 56 57 62 68 71 75 78 81 85 82 81 82 75 75 69 63 60 60 59 54
60 62 62 55 55 53 46 44 44 46 53 61 69 76 79 83 86 83 85 84 79 73 72 65 64 60 55
62 64 59 54 51 46 40 37 36 38 43 51 59 68 76 82 86 85 86 88 88 83 76 72 73 67 59
63 62 55 52 46 41 37 34 33 36 39 43 51 58 69 76 84 86 86 90 91 90 85 78 77 72 67
61 58 53 46 39 36 31 30 31 34 35 37 41 50 56 66 76 85 86 87 90 92 91 86 81 81 73

GFSFLT2_500_spd_123.txt.gz
Wind_Speed
55 57 58 60 62 62 62 62 60 59 57 53 55 61 63 62 64 70 66 68 70 70 67 59 60 58 60
60 61 63 63 63 63 64 64 64 62 60 58 52 56 63 61 64 65 67 63 69 71 69 62 63 64 64
65 67 67 66 64 65 65 66 65 63 63 60 59 55 61 59 53 59 59 55 65 72 64 68 69 64 62
64 61 58 58 60 61 63 66 68 68 66 63 62 60 56 63 63 57 61 61 57 56 61 64 65 63 57
48 49 50 50 52 54 56 57 59 64 69 71 68 62 62 59 63 61 58 59 59 59 61 62 67 66 60
40 43 47 51 51 53 55 57 59 61 63 65 74 72 66 67 62 64 65 62 53 57 55 60 53 61 59
46 49 51 53 54 55 57 58 60 63 67 63 66 71 71 70 69 65 66 66 65 60 60 58 59 59 63
51 55 58 61 65 67 67 64 63 62 67 68 66 66 67 72 74 69 63 74 70 64 59 62 62 58 55
56 59 63 65 68 68 68 67 63 57 59 70 71 69 65 69 77 73 67 67 72 70 68 67 58 55 61
57 62 65 67 67 67 66 66 65 52 52 59 66 74 70 66 74 79 72 66 68 69 71 68 62 62 59
52 57 61 67 67 66 66 65 64 56 50 54 56 63 75 69 68 78 78 73 69 69 68 68 66 63 60
56 60 63 66 66 66 65 65 66 59 54 55 54 59 67 73 70 73 81 78 73 74 74 71 69 67 60
60 60 64 65 63 62 64 65 63 59 57 53 51 53 60 66 72 73 78 82 79 79 77 74 68 68 63
60 63 66 64 61 62 62 60 57 56 55 52 46 46 51 60 67 72 79 81 84 82 81 72 67 67 63
63 67 66 63 61 58 56 54 53 49 44 46 43 40 44 50 59 69 79 81 84 86 83 79 68 68 62
67 69 63 57 53 51 50 48 43 39 34 34 37 39 39 42 52 62 75 82 84 88 86 83 75 74 68
64 61 56 52 46 44 39 31 25 25 27 30 34 37 38 39 43 52 67 79 84 87 89 84 80 75 76

GFSFLT2_500_spd_126.txt.gz
Wind_Speed
54 53 55 58 60 60 60 60 62 63 63 65 67 67 67 66 65 65 61 69 73 73 73 78 79 78 71
55 58 61 64 67 68 68 68 66 67 67 68 69 69 70 69 68 65 64 62 68 69 68 70 77 76 74
59 64 67 71 71 69 65 64 65 65 67 68 69 70 71 70 70 69 65 60 64 66 66 66 69 72 74
65 65 59 52 51 51 52 53 53 54 57 60 66 70 71 71 71 70 68 66 60 60 62 66 65 70 72
54 50 51 51 51 50 52 52 52 54 56 56 59 61 66 71 72 70 68 69 65 60 62 64 60 66 71
47 47 47 48 50 50 51 52 53 56 59 60 61 60 62 66 70 74 72 70 69 62 63 66 56 56 72
45 44 46 48 50 52 55 56 57 57 56 55 60 67 67 66 70 72 74 75 71 68 63 66 64 60 62
45 46 49 51 53 52 49 51 54 57 62 63 64 63 63 69 71 73 74 76 75 72 68 68 67 67 63
48 50 52 52 52 53 56 60 61 64 67 70 69 68 63 59 65 72 76 77 77 77 75 69 69 66 61
51 52 51 53 58 62 66 68 68 67 70 74 72 71 63 55 57 63 75 79 78 79 78 75 72 70 59
52 53 57 62 67 70 70 69 70 72 74 78 71 67 66 53 50 56 69 80 81 77 81 79 73 74 72
51 54 58 62 65 66 68 72 76 77 73 73 70 67 63 54 49 53 61 75 83 77 80 81 79 72 73
56 60 63 66 67 70 74 75 74 70 68 66 65 63 61 56 48 50 58 68 79 79 78 80 78 74 72
59 63 66 69 72 75 73 69 63 59 60 62 61 59 55 52 45 45 54 62 72 80 77 79 78 75 71
61 65 68 72 74 71 65 62 57 53 52 53 51 46 43 40 36 41 46 57 67 75 78 76 77 77 73
62 65 67 68 67 58 51 45 40 36 32 32 31 30 29 28 30 33 40 49 64 71 78 75 76 79 76
60 61 60 62 48 39 34 30 29 29 29 30 30 29 27 28 34 34 37 45 57 67 75 76 75 79 78

GFSFLT2_500_spd_129.txt.gz
Wind_Speed
49 51 52 52 52 52 52 54 57 61 64 65 67 68 68 68 67 66 65 66 67 66 66 66 70 77 77
47 48 49 51 54 57 59 63 65 67 70 73 74 74 73 73 72 72 71 69 70 71 73 69 68 64 69
48 49 50 53 56 61 63 64 65 62 59 58 58 58 59 66 74 76 76 75 74 72 72 70 70 69 65
49 50 53 56 58 60 60 57 56 57 58 57 57 58 59 61 61 63 73 77 78 77 75 73 72 71 70
50 52 56 57 57 57 56 55 53 53 53 53 55 56 58 61 62 64 64 69 74 79 79 78 74 73 71
53 55 55 56 56 56 55 54 50 51 53 53 55 55 54 53 54 57 64 68 69 73 78 79 79 75 73
54 53 53 55 57 56 54 52 53 54 56 53 52 53 54 54 56 57 56 58 69 75 73 78 79 77 74
53 52 53 53 52 52 53 55 56 56 58 57 60 63 63 64 66 66 66 67 63 70 77 75 79 80 74
52 50 50 51 52 54 56 58 57 59 65 70 71 73 72 71 72 72 73 74 75 70 73 79 76 81 76
48 46 49 51 53 56 58 60 62 63 68 72 72 76 74 72 74 76 78 79 79 76 72 75 79 79 81
44 45 51 53 56 61 66 69 71 72 75 80 79 80 83 81 79 80 81 80 79 74 72 71 78 79 80
43 49 53 57 63 65 68 71 76 80 81 85 84 79 77 73 72 68 69 70 70 68 68 69 73 78 79
45 50 56 59 61 65 69 74 76 76 72 68 66 62 62 61 58 57 58 58 60 60 64 67 68 76 78
46 51 54 57 62 64 63 64 60 52 49 45 43 39 37 38 42 43 46 48 47 52 60 63 63 73 77
47 49 53 57 56 55 57 58 52 47 42 41 40 38 34 32 31 32 29 32 36 42 54 58 59 70 74
46 50 53 50 51 53 54 54 51 46 44 43 41 38 36 33 35 31 29 28 30 35 45 55 57 64 71
47 48 46 46 44 41 40 44 46 45 43 41 37 34 30 28 32 37 32 30 31 31 40 51 54 60 68

GFSFLT2_500_spd_132.txt.gz
Wind_Speed
48 49 48 49 50 50 49 49 50 52 53 54 56 58 60 62 62 62 63 63 63 65 65 64 65 69 70
49 50 49 48 49 49 50 49 50 52 55 57 60 62 63 65 68 69 70 72 73 73 70 68 69 71 71
48 48 49 48 48 49 49 50 52 56 57 60 62 64 66 65 62 61 62 63 64 66 74 77 75 74 74
49 48 48 48 49 49 50 52 56 58 59 60 61 61 62 63 64 65 64 64 65 65 65 65 76 79 78
49 48 49 48 49 51 52 54 57 57 58 59 60 62 62 63 62 61 62 63 64 65 66 69 69 70 80
49 48 48 49 50 52 54 55 55 56 58 58 59 58 59 61 62 63 63 63 61 59 60 63 66 71 69
48 47 48 51 51 52 54 56 57 57 58 56 56 56 60 63 64 65 65 64 64 63 62 60 58 62 70
48 47 50 50 51 52 55 57 55 55 58 57 58 59 60 62 66 69 70 71 72 72 72 69 67 65 62
47 49 50 50 51 53 54 53 53 56 60 63 64 66 68 69 72 76 78 79 81 81 80 77 74 71 69
47 49 48 48 49 49 48 51 57 60 66 69 72 76 76 77 80 83 85 87 88 87 86 83 80 78 73
46 45 44 43 41 44 50 55 59 62 69 74 76 80 82 82 79 85 91 92 93 93 93 92 88 84 80
43 41 38 37 41 46 52 55 60 62 63 58 54 58 59 56 52 49 54 62 72 78 83 87 91 91 87
38 36 35 38 43 47 53 55 54 49 51 54 56 55 56 53 47 42 43 42 48 57 65 70 73 80 90
33 33 36 40 45 50 50 46 43 46 49 55 57 55 52 52 49 44 43 41 39 41 47 52 59 64 69
30 32 36 41 46 47 42 39 42 46 51 57 56 52 50 49 48 45 39 36 37 38 39 36 43 50 56
29 33 37 42 42 38 36 38 43 48 50 51 50 47 45 44 48 45 39 34 32 35 37 33 30 39 46
30 34 37 38 35 31 33 37 44 47 49 51 50 48 43 41 42 45 44 39 31 26 27 32 30 32 40

GFSFLT2_500_spd_135.txt.gz
Wind_Speed
53 54 52 50 49 49 51 51 51 51 52 52 53 54 55 55 55 54 55 56 57 59 61 63 64 65 64
54 55 54 52 50 50 51 51 51 51 51 51 53 55 56 56 57 58 59 60 61 63 64 65 66 68 68
53 53 51 52 51 50 52 51 51 51 52 52 54 55 57 59 60 61 62 64 66 67 67 68 68 71 74
52 51 51 52 52 50 51 50 51 52 52 53 55 57 58 59 61 63 65 66 66 67 67 69 69 67 67
51 49 51 52 51 50 49 49 51 51 52 55 55 57 59 61 63 65 65 67 69 69 69 69 70 70 70
49 51 52 52 52 49 48 48 48 51 52 51 54 54 57 60 64 67 69 70 69 69 70 70 69 69 69
50 52 51 51 49 48 48 47 47 48 49 47 51 53 57 59 61 63 65 67 70 72 73 73 71 70 68
50 50 48 46 46 47 45 45 46 47 50 48 50 52 54 57 61 65 68 71 74 77 78 78 77 76 73
48 48 46 44 46 43 43 43 44 44 46 48 49 52 56 59 66 72 77 81 84 86 88 88 87 84 80
46 44 43 44 41 40 41 42 44 41 45 47 51 57 58 62 64 65 67 70 74 78 86 96 97 95 92
42 42 44 40 37 38 39 38 39 41 47 50 54 58 58 55 56 60 63 63 65 69 67 67 73 91 99
39 41 38 35 35 35 34 36 39 43 49 50 46 48 51 54 56 56 57 58 58 61 59 57 56 59 70
40 35 33 33 31 32 34 36 40 44 42 39 42 47 51 53 52 52 54 52 55 57 56 50 50 52 52
35 32 32 30 29 31 34 37 37 34 35 38 42 47 51 52 52 51 54 51 50 51 52 46 43 45 47
30 31 30 29 30 32 34 35 30 29 32 38 44 48 52 53 51 51 51 52 50 48 47 45 40 41 44
30 29 29 28 30 33 34 32 27 29 32 37 43 48 50 53 55 51 51 52 49 47 47 42 37 39 41
28 28 28 28 30 33 33 28 29 29 34 37 43 47 49 52 53 52 51 50 48 46 46 44 38 36 41

GFSFLT2_500_spd_138.txt.gz
Wind_Speed
57 57 58 58 57 57 56 54 54 54 54 52 53 56 57 58 58 58 57 55 53 53 53 53 53 54 55
60 60 59 58 57 55 54 53 51 52 53 53 54 57 58 57 58 57 57 57 57 56 56 56 57 58 58
61 59 59 60 58 55 53 52 51 52 53 53 55 57 59 58 57 58 58 58 59 59 59 59 60 60 60
61 59 57 58 56 54 53 52 51 52 53 54 54 54 56 56 58 57 57 59 59 60 60 61 62 63 63
57 56 56 54 53 53 52 53 54 54 53 53 52 53 53 55 55 55 57 58 59 60 62 63 64 65 67
54 54 53 52 53 53 53 53 53 52 50 49 50 50 49 48 50 52 54 56 58 60 62 65 67 69 71
52 52 52 52 51 51 53 52 51 49 47 45 46 44 44 46 48 51 54 57 60 64 66 69 70 72 74
51 50 47 49 48 49 50 48 46 47 45 39 40 40 42 44 46 49 53 57 61 65 68 71 74 76 78
50 50 53 54 50 48 47 42 43 40 39 36 38 37 37 38 44 49 53 58 62 67 72 76 79 82 84
50 52 49 48 48 46 41 41 38 35 37 35 35 37 35 39 45 51 55 58 61 63 66 68 71 73 74
48 47 47 47 43 39 40 38 33 33 35 35 34 37 40 41 40 42 44 49 55 60 63 65 68 71 71
45 44 44 41 39 39 38 33 32 32 35 37 35 39 41 37 34 38 45 50 56 59 61 62 64 65 67
44 42 38 37 39 37 33 32 32 33 35 37 38 40 35 32 36 41 47 49 56 59 60 60 59 60 61
41 37 35 38 35 33 33 33 31 35 37 39 40 36 32 35 38 43 45 48 52 57 58 57 55 56 58
37 34 36 35 34 34 32 32 32 35 38 40 38 34 35 38 40 42 41 47 54 58 60 56 54 54 54
33 34 33 33 34 32 32 32 32 36 37 38 37 36 36 38 41 39 46 51 56 62 64 59 50 50 51
33 32 31 34 31 30 31 32 33 36 37 37 37 38 37 38 40 46 50 55 58 62 65 61 52 44 48

GFSFLT2_500_spd_141.txt.gz
Wind_Speed
69 70 71 70 69 68 66 62 60 60 59 58 58 56 56 56 56 56 55 55 55 56 56 57 57 57 57
72 72 72 71 69 65 63 61 60 58 57 58 57 56 55 55 56 57 56 56 56 57 57 57 58 57 58
75 72 70 68 66 64 61 59 58 57 56 54 56 56 55 55 57 58 58 58 57 56 55 54 55 56 57
71 67 65 64 62 60 58 57 56 55 55 54 54 54 54 55 58 59 58 57 56 55 55 55 54 54 56
63 61 62 61 58 57 57 56 54 54 55 54 54 53 53 53 55 56 56 55 56 55 54 56 56 54 54
57 56 55 57 55 55 52 49 48 52 50 52 52 53 53 51 51 53 53 53 54 52 51 50 52 53 53
55 52 53 52 52 48 51 49 49 49 49 47 49 49 48 48 50 50 48 46 46 46 47 48 50 52 54
53 51 52 53 51 50 49 50 50 51 50 44 47 46 45 46 45 41 40 40 42 43 45 47 49 51 54
57 57 58 56 55 54 52 52 47 47 46 43 43 41 41 39 37 36 38 39 40 41 43 46 50 53 56
52 49 44 45 47 47 46 45 44 42 41 40 39 37 32 33 35 37 39 40 41 43 46 48 49 50 51
42 45 46 46 48 48 46 44 41 37 39 38 37 34 32 30 34 39 41 42 43 43 42 43 46 49 52
41 42 44 45 48 47 46 42 37 36 37 37 33 35 35 33 33 39 41 41 40 40 41 44 45 48 51
39 42 44 45 45 43 41 38 38 35 36 37 37 36 35 34 35 38 40 40 41 41 43 42 43 46 49
42 43 44 44 43 40 38 40 36 35 38 38 38 37 35 35 37 38 41 41 42 44 44 43 46 50 53
43 45 44 42 40 38 39 37 35 37 38 39 38 36 36 37 39 41 43 42 45 46 45 46 50 54 58
41 44 42 39 38 39 38 36 37 36 35 38 39 39 39 39 41 41 43 44 46 47 50 52 53 58 63
40 40 38 37 38 36 35 37 35 35 35 37 39 41 41 40 41 44 44 47 48 49 53 57 59 60 67

GFSFLT2_500_spd_144.txt.gz
Wind_Speed
66 70 75 78 79 80 79 77 73 69 64 63 64 62 61 60 58 57 56 57 56 56 56 55 52 52 53
72 77 79 83 84 80 74 69 65 63 61 60 60 60 59 57 55 55 56 57 57 57 55 55 54 53 55
76 80 82 82 78 70 65 61 58 57 56 58 59 59 59 57 56 56 56 56 56 57 57 57 55 54 54
78 79 79 73 69 63 58 56 53 52 52 51 53 55 55 55 56 54 54 54 54 54 55 56 55 55 54
77 77 72 67 63 57 51 50 47 48 47 49 48 48 50 49 50 50 51 50 50 51 51 52 52 51 52
76 75 68 62 58 53 48 47 45 48 49 47 47 48 47 44 45 47 47 49 50 50 49 49 49 50 50
75 69 64 59 57 53 52 51 49 51 49 46 48 48 47 46 46 43 44 45 45 46 46 47 47 50 50
70 65 61 59 57 54 52 47 44 44 48 47 49 48 46 43 42 42 43 44 44 45 45 45 46 46 45
68 61 58 57 54 50 41 38 37 42 44 43 43 40 42 43 42 41 41 41 42 41 40 40 40 40 40
62 58 55 54 51 44 41 39 42 43 45 42 42 41 39 39 40 39 39 39 37 35 36 37 38 39 39
58 56 53 51 47 43 41 41 44 45 44 42 40 38 36 35 39 38 35 35 33 35 37 39 39 40 40
56 53 51 49 45 42 40 40 44 43 42 38 35 36 37 34 29 35 36 36 38 40 41 41 42 43 42
52 51 50 47 45 43 42 43 43 44 41 37 37 37 33 32 31 32 37 41 43 44 44 44 45 45 44
50 49 47 45 43 44 44 45 43 41 38 38 39 35 32 32 33 33 38 41 45 46 47 47 49 48 48
48 46 44 42 39 40 42 43 40 38 39 42 38 34 34 35 35 36 39 41 44 47 48 49 51 52 53
44 42 40 37 35 37 40 39 38 38 39 38 37 38 37 34 35 37 39 42 45 47 49 50 52 56 58
40 38 36 33 34 36 36 36 37 37 34 35 37 39 37 34 36 39 40 43 46 48 50 51 53 56 61

GFSFLT2_500_spd_147.txt.gz
Wind_Speed
55 56 59 62 64 67 69 75 81 84 82 77 69 62 61 62 60 58 56 57 58 58 57 58 58 57 58
56 59 62 64 66 69 74 79 82 81 74 67 61 57 55 56 57 57 58 58 57 58 58 59 58 58 58
58 60 62 64 68 74 77 80 79 73 66 61 55 52 52 52 52 52 52 55 56 57 59 58 59 58 58
60 60 62 65 71 75 76 76 72 66 61 55 50 47 49 49 47 46 47 47 47 49 54 56 57 58 57
59 60 62 67 72 74 71 71 65 60 56 53 49 48 50 48 45 44 44 45 45 45 47 49 52 51 53
58 59 64 69 71 71 70 68 60 56 54 52 51 51 54 52 49 44 44 45 45 45 46 47 48 49 49
59 61 66 69 71 70 70 64 57 53 52 48 48 49 51 46 45 45 44 46 45 45 43 44 47 49 50
61 64 67 70 71 70 68 60 55 51 51 43 40 42 40 40 40 38 42 43 43 42 43 43 44 45 47
64 67 70 71 70 68 63 57 52 49 45 42 41 40 41 43 43 39 38 39 40 40 41 42 43 44 45
71 73 73 72 68 66 60 54 51 47 38 40 39 39 39 43 43 41 38 37 37 38 40 41 42 43 44
75 74 69 66 66 65 56 52 48 44 39 37 37 39 40 41 39 37 35 35 35 37 37 39 40 41 40
77 69 65 65 66 61 53 50 46 42 39 39 36 39 39 38 35 34 37 37 35 35 36 38 38 38 38
71 66 65 65 62 54 50 47 44 39 39 41 39 38 37 34 33 35 35 37 35 34 35 36 37 39 40
69 65 62 59 54 50 46 44 41 36 38 39 39 37 33 31 33 34 35 34 37 36 37 38 40 42 44
65 59 54 49 48 46 42 40 37 35 35 36 38 34 32 33 31 32 34 34 37 40 42 42 44 46 46
56 49 44 44 43 40 38 36 32 32 33 35 34 33 33 31 31 31 31 34 39 42 44 45 46 48 49
44 39 39 38 38 35 33 30 30 31 30 31 32 33 30 27 29 29 30 35 37 40 43 45 45 46 50

GFSFLT2_500_spd_150.txt.gz
Wind_Speed
60 60 59 58 59 58 58 57 58 58 58 61 66 70 75 77 75 69 65 60 59 59 61 63 62 62 61
62 61 59 59 58 58 57 57 56 57 60 63 67 70 74 73 69 64 59 57 55 55 56 58 62 61 60
65 62 59 59 58 57 57 56 56 58 60 63 67 70 72 68 65 60 55 52 51 52 52 52 54 57 60
64 61 60 58 58 58 57 57 58 57 59 62 66 70 69 65 62 57 53 50 48 47 47 48 49 50 54
62 60 58 59 59 59 58 58 56 57 59 62 66 67 65 63 59 55 51 51 50 49 48 48 48 48 48
62 61 59 60 61 61 60 58 58 59 60 64 66 65 62 61 58 54 52 52 52 51 50 48 47 46 47
67 65 65 65 65 63 63 62 61 62 62 63 64 63 60 59 55 51 44 39 38 43 50 51 49 48 48
71 69 67 64 66 67 66 66 65 65 65 63 62 59 57 56 53 46 39 38 40 42 43 48 49 49 48
72 70 70 70 70 70 69 70 69 67 65 62 59 58 54 52 49 45 41 41 43 42 42 42 45 46 46
77 76 75 74 75 74 74 73 71 69 65 62 59 57 52 47 46 44 44 44 42 41 41 42 41 43 43
86 85 84 81 79 79 78 76 73 67 66 62 57 54 51 47 44 44 45 44 41 39 38 39 40 40 42
95 93 91 87 85 83 80 77 71 66 66 62 52 51 49 46 44 43 43 43 41 36 34 36 37 39 39
87 86 84 77 81 79 76 72 68 63 60 54 50 49 47 44 44 43 43 42 39 36 35 35 36 36 37
69 69 69 53 58 53 57 60 58 54 51 48 47 47 44 41 41 41 42 38 38 37 35 31 33 34 36
50 49 47 45 46 45 50 48 46 45 44 44 44 43 39 35 35 38 38 37 36 36 35 31 32 34 36
34 37 37 41 40 45 43 43 41 39 39 39 40 38 31 32 34 34 34 34 35 34 34 33 33 35 36
29 30 34 32 33 45 48 38 34 34 35 35 32 31 31 29 31 31 31 33 33 32 32 33 34 37 40

GFSFLT2_500_spd_153.txt.gz
Wind_Speed
63 65 64 63 64 64 63 64 64 63 63 62 59 58 57 58 57 59 59 59 60 61 64 64 61 60 59
66 66 67 66 66 66 66 64 62 62 62 60 59 57 56 57 58 56 58 59 59 61 63 59 57 55 53
70 70 69 70 69 67 65 64 63 62 60 59 59 57 57 58 56 56 57 58 61 63 60 56 54 51 51
74 73 72 70 70 68 67 66 62 61 61 60 59 59 60 57 56 56 57 58 61 63 57 54 52 50 49
76 73 71 69 70 70 69 66 65 64 61 61 62 61 60 59 59 58 58 59 62 61 56 52 51 51 49
73 72 69 69 69 71 72 70 70 67 68 67 63 58 62 63 62 61 60 59 60 58 55 53 53 53 53
74 71 70 69 70 69 69 68 66 67 69 64 59 60 64 64 64 63 62 59 58 56 54 52 51 49 46
79 75 76 75 77 76 75 74 70 69 70 66 62 64 65 65 67 66 64 60 58 55 52 50 47 44 43
86 84 84 83 83 83 82 81 78 76 76 75 70 71 71 69 68 67 64 61 58 53 50 48 44 44 45
93 93 92 92 90 91 89 87 84 85 81 82 77 76 74 72 70 67 64 60 56 52 49 46 45 45 44
102 101 99 98 98 95 92 91 87 90 86 85 82 79 77 73 70 67 63 59 55 50 48 45 45 44 43
88 84 82 82 82 84 85 75 77 73 71 78 79 75 72 71 68 63 60 57 54 48 46 44 43 42 41
68 65 62 61 62 59 59 55 47 56 50 45 50 55 60 60 59 56 54 52 51 49 45 42 40 40 38
56 53 48 44 42 40 37 46 48 46 43 43 42 44 47 50 50 49 49 49 47 46 42 40 38 36 37
51 46 38 31 29 26 33 43 47 40 37 36 37 43 46 43 42 43 44 42 42 41 38 39 36 34 37
46 35 30 26 20 32 35 43 35 32 37 33 39 41 40 37 36 36 35 37 38 36 39 38 36 35 34
42 32 28 28 25 22 27 35 26 32 36 40 39 34 33 30 30 30 31 34 35 35 37 35 33 33 31

GFSFLT2_500_spd_156.txt.gz
Wind_Speed
67 67 68 69 67 66 66 67 66 66 66 66 66 66 64 63 62 62 61 58 57 56 55 55 57 54 53
71 71 71 71 72 72 71 70 70 70 71 70 69 66 63 62 62 62 61 58 57 56 57 57 51 50 51
74 74 74 74 75 76 74 74 74 72 71 69 67 65 63 63 60 60 59 59 58 57 57 55 51 49 50
75 75 76 75 77 77 76 74 71 71 69 68 67 66 64 62 62 61 61 60 59 61 58 56 52 51 50
77 76 75 75 75 74 73 71 70 69 68 67 66 65 65 66 65 65 66 65 67 62 59 58 55 53 51
77 77 76 76 76 75 75 74 71 69 70 67 67 64 62 64 67 69 70 67 65 61 59 58 57 55 52
81 80 81 80 83 82 81 80 76 75 77 72 71 68 68 66 64 63 63 64 62 58 58 59 60 57 55
87 85 86 85 88 89 89 88 85 82 82 80 77 75 75 74 72 70 67 64 61 60 60 61 61 58 56
93 94 95 97 98 100 98 99 97 93 89 88 82 82 82 81 78 75 74 71 69 68 66 65 63 59 57
101 100 97 94 92 93 93 95 96 94 88 91 86 85 87 84 82 80 77 74 73 70 68 66 63 59 56
86 80 76 71 70 71 73 75 77 76 73 77 78 75 80 82 80 78 75 73 71 69 67 65 62 58 56
65 62 63 61 58 58 57 58 60 59 52 52 47 50 48 55 62 65 67 67 66 65 65 63 60 57 54
58 56 49 49 50 52 49 46 44 40 38 36 37 46 40 41 40 42 49 50 54 59 59 58 56 55 50
50 44 44 44 49 47 37 34 31 33 28 28 41 43 42 36 33 34 39 42 48 49 51 52 50 48 46
41 44 45 46 49 36 27 27 28 29 26 25 23 39 36 33 29 31 38 44 47 48 48 47 44 43 43
41 42 45 42 43 31 23 25 18 17 28 38 32 27 27 24 25 31 37 36 38 41 40 38 38 38 39
39 44 41 39 27 19 19 22 20 23 25 22 21 24 25 29 32 32 27 25 28 32 34 33 33 34 34

GFSFLT2_500_spd_159.txt.gz
Wind_Speed
69 70 71 71 71 71 70 69 69 71 72 72 72 72 72 70 69 68 67 67 65 63 63 62 61 59 58
75 75 74 73 74 75 75 75 74 73 75 76 75 75 75 74 72 71 70 68 66 63 62 61 60 58 58
77 76 76 75 74 75 76 76 76 75 76 77 76 75 73 71 68 67 65 64 65 65 64 61 59 58 56
77 76 76 74 75 74 73 73 72 74 73 72 71 69 68 67 66 64 64 63 63 64 63 62 60 59 60
76 77 77 78 79 79 78 77 75 76 76 75 76 74 71 69 66 64 63 63 63 62 62 63 63 62 61
77 78 78 81 82 84 85 86 84 82 81 77 79 78 76 74 72 70 68 65 63 62 64 64 63 64 65
81 82 84 86 90 91 91 92 90 89 93 87 86 82 80 80 79 77 75 73 71 68 63 61 61 64 64
90 91 94 95 97 100 101 102 101 99 100 100 96 94 91 87 85 83 81 79 77 74 70 67 63 59 56
94 97 99 100 100 101 99 100 99 96 95 98 94 97 96 94 91 89 86 84 82 80 76 72 69 67 62
98 96 93 89 82 79 75 73 70 72 66 74 73 71 75 76 84 86 83 81 85 82 78 75 72 70 66
84 76 72 69 63 60 58 59 58 58 53 61 61 56 56 55 56 61 65 65 61 73 72 72 71 70 67
68 60 54 50 49 49 47 45 49 52 53 51 49 43 38 39 39 40 39 47 54 50 58 61 63 64 65
50 46 44 43 42 38 41 45 47 48 45 37 33 29 24 30 36 40 44 41 48 46 44 47 51 56 58
45 41 37 32 36 40 40 44 42 37 28 27 24 29 21 23 29 26 34 34 37 42 46 48 48 51 52
29 31 35 37 37 40 42 38 36 17 24 19 21 8 7 19 22 25 28 34 35 38 42 45 48 53 54
33 36 36 35 36 37 33 26 19 19 18 11 14 15 18 13 20 23 26 28 29 30 32 33 36 39 45
35 35 35 35 34 33 18 14 18 24 19 17 17 20 21 20 17 27 31 29 26 31 32 31 32 34 36